CST,Max TemperatureF,Mean TemperatureF,Min TemperatureF,Max Dew PointF,MeanDew PointF,Min DewpointF,Max Humidity, Mean Humidity, Min Humidity, Max Sea Level PressureIn, Mean Sea Level PressureIn, Min Sea Level PressureIn, Max VisibilityMiles, Mean VisibilityMiles, Min VisibilityMiles, Max Wind SpeedMPH, Mean Wind SpeedMPH, Max Gust SpeedMPH,PrecipitationIn, CloudCover, Events, WindDirDegrees
2013-11-1,59,46,32,32,27,19,82,54,30,30.26,30.04,29.81,10,10,10,20,9,28,0.00,0,,355
2013-11-2,65,48,30,30,26,24,81,49,23,30.35,30.21,30.05,10,10,10,23,10,30,0.00,0,,232
2013-11-3,73,59,45,37,29,25,59,36,17,30.04,29.85,29.71,10,10,10,31,18,41,0.00,0,,198
2013-11-4,57,47,37,38,34,30,82,60,40,30.04,29.94,29.77,10,10,10,21,13,28,0.00,1,Rain,73
2013-11-5,64,49,34,54,42,27,99,82,54,30.17,29.96,29.86,10,8,1,29,12,37,0.27,5,Rain,34
2013-11-6,53,40,27,29,24,17,89,58,27,30.35,30.29,30.19,10,10,10,16,10,18,0.00,1,,244
2013-11-7,62,44,27,31,25,21,85,53,23,30.45,30.35,30.26,10,10,10,15,7,21,0.03,0,,208
2013-11-8,71,54,37,36,27,21,64,38,20,30.25,30.03,29.88,10,10,10,34,20,40,0.00,0,,213
2013-11-9,61,48,36,38,35,29,91,64,39,30.25,30.08,29.91,10,10,10,18,10,23,0.00,0,,7
2013-11-10,51,40,30,48,40,31,100,95,83,30.34,30.26,30.22,10,5,0,10,4,,0.00,5,Fog,175
2013-11-11,69,49,29,45,37,30,100,78,30,30.57,30.27,30.16,10,6,0,23,10,30,0.00,4,Fog,18
2013-11-12,43,33,23,29,23,20,99,75,47,30.77,30.67,30.57,10,10,1,24,13,30,0.00,3,,10
2013-11-13,61,44,28,37,31,24,92,61,39,30.56,30.33,30.11,10,10,10,28,15,33,0.00,0,,214
2013-11-14,61,46,32,34,30,27,84,56,32,30.10,29.97,29.91,10,10,10,24,14,33,0.00,0,,279
2013-11-15,69,50,30,40,31,27,90,54,22,29.95,29.78,29.65,10,10,10,28,12,34,0.00,0,,220
2013-11-16,69,59,49,44,35,26,76,45,22,29.65,29.59,29.51,10,10,5,44,23,58,0.00,1,,230
2013-11-17,67,54,41,32,27,15,49,35,20,30.15,29.86,29.59,10,10,10,30,16,36,0.00,0,,240
2013-11-18,55,40,26,18,16,13,65,38,20,30.29,30.19,30.13,10,10,10,14,8,20,0.00,0,,156
2013-11-19,71,52,33,36,27,17,55,39,23,30.13,29.91,29.78,10,10,10,34,14,44,0.00,0,,194
2013-11-20,58,50,43,36,30,24,65,43,27,29.87,29.82,29.76,10,10,10,18,8,,0.00,0,,239
2013-11-21,53,36,20,38,25,10,97,72,47,30.46,30.13,29.86,10,9,1,30,15,38,0.00,5,,344
2013-11-22,23,20,18,22,15,10,93,77,63,30.60,30.52,30.44,10,10,5,32,22,41,0.00,8,Snow,4
2013-11-23,31,27,23,23,20,12,95,77,45,30.62,30.58,30.55,10,9,2,15,9,18,0.03,7,Snow,29
2013-11-24,29,26,23,24,23,22,96,89,80,30.59,30.34,30.06,10,6,0,21,6,28,0.21,8,Snow,175
2013-11-25,29,23,17,24,21,16,96,89,75,30.25,30.09,29.97,10,9,2,28,12,33,0.00,5,,329
2013-11-26,40,30,19,29,24,16,91,79,57,30.39,30.33,30.25,10,10,10,17,10,20,0.00,0,,325
2013-11-27,52,36,21,33,28,19,94,77,45,30.38,30.24,30.14,10,10,10,18,9,21,0.00,0,,212
2013-11-28,46,36,26,33,29,25,95,79,57,30.31,30.21,30.12,10,10,10,16,10,,0.00,0,,327
2013-11-29,61,43,25,35,31,24,96,72,33,30.30,30.21,30.12,10,10,7,25,10,32,0.00,0,,223
2013-11-30,61,46,31,33,29,26,89,57,27,30.19,30.15,30.10,10,10,10,15,8,,0.00,0,,165